Location: Herm
(49.4830°N, 2.4500°W)
Time: 11:52:43
(UTC+01:00)

Envisat - Visible Passes

Search period start: 03 October 2022 00:00
Search period end: 13 October 2022 00:00
Orbit: 764 x 765 km, 98.2° (Epoch: 03 October)

Date Brightness Start Highest point End Pass type
(mag) Time Alt. Az. Time Alt. Az. Time Alt. Az.
03 Oct 4.4 04:59:25 10° NNE 05:04:09 38° E 05:08:52 10° SSE visible
03 Oct 3.7 06:38:33 10° N 06:43:08 34° WNW 06:47:40 10° SW visible
04 Oct 5.5 04:23:15 10° NE 04:26:51 19° E 04:30:25 10° SE visible
04 Oct 3.0 06:01:17 10° N 06:06:20 67° WNW 06:11:22 10° SSW visible
05 Oct 3.5 05:24:19 10° NNE 05:29:23 62° ESE 05:34:24 10° S visible
06 Oct 4.8 04:47:43 10° NNE 04:52:12 30° E 04:56:40 10° SSE visible
06 Oct 3.4 06:26:34 10° N 06:31:20 42° WNW 06:36:05 10° SW visible
07 Oct 5.8 04:11:53 10° NE 04:14:50 15° E 04:17:46 10° ESE visible
07 Oct 2.9 05:49:24 10° NNE 05:54:30 83° WNW 05:59:35 10° SSW visible
08 Oct 3.9 05:12:31 10° NNE 05:17:28 49° E 05:22:23 10° S visible
09 Oct 5.1 04:36:05 10° NE 04:40:14 25° E 04:44:22 10° SSE visible
09 Oct 3.2 06:14:35 10° N 06:19:32 52° WNW 06:24:26 10° SW visible
10 Oct 5.9 04:00:50 10° ENE 04:02:47 12° E 04:04:44 10° ESE visible
10 Oct 3.1 05:37:31 10° NNE 05:42:38 80° ESE 05:47:42 10° SSW visible
11 Oct 4.3 05:00:45 10° NNE 05:05:32 39° E 05:10:17 10° SSE visible
11 Oct 3.7 06:39:56 10° N 06:44:28 33° WNW 06:48:59 10° SW visible
12 Oct 5.4 04:24:32 10° NE 04:28:15 20° E 04:31:55 10° SE visible
12 Oct 3.0 06:02:39 10° N 06:07:42 64° WNW 06:12:42 10° SSW visible
